User: anonymous   Login
Location: Bu�n Treun
(12.1333°N, 108.3167°E)
Time: 08:34:38
(UTC+00:00)
Language:

N. Korean satellite - Orbit

View from above orbital plane
View from above orbital plane
View from above satellite
View from above satellite

Ground track
Ground track

The orbit data is extracted from the following two-line orbital elements,

1 39026U 12072A   21208.89397285  .00002559  00000-0  88073-4 0  9997
2 39026  97.2455 200.7824 0033753 238.5436 121.2505 15.30438860479216
Epoch (UTC): 27 July 2021 21:27:19
Eccentricity: 0.0033753
inclination: 97.2455°
perigee height: 451 km
apogee height: 497 km
right ascension of ascending node: 200.7824°
argument of perigee: 238.5436°
revolutions per day: 15.30438860
mean anomaly at epoch: 121.2505°
orbit number at epoch: 47921

The dashed part of the orbit path shows where the satellite is in the earth's shadow,  

DLR